Lid_Strength_Index
3 3 4 4 5 6 4 4 6 2 2 8 8 9 8 8 6 5 6 6 7 8 7 7 7 7 6 4 5 6 5 7 9 8 6 5 6 7 7 10 12 10 10 14
3 3 3 4 5 5 6 5 4 1 2 9 9 8 8 7 7 6 7 7 6 6 7 8 7 6 5 4 5 6 5 7 10 9 7 6 7 7 6 7 8 11 12 11
2 3 3 4 4 5 5 4 7 4 3 4 6 7 7 8 6 7 6 6 6 6 7 6 7 7 5 4 5 5 5 7 9 11 9 8 8 7 7 7 10 10 9 12
2 2 3 3 4 4 4 4 5 4 7 6 6 6 6 7 8 7 6 7 6 6 7 7 7 6 6 5 4 5 5 10 8 7 7 7 8 8 7 8 8 9 9 9
2 2 2 2 3 4 3 5 5 4 5 5 6 6 7 7 6 7 7 8 6 5 7 6 7 6 6 6 5 6 5 9 8 9 7 7 8 7 7 7 7 7 7 12
2 2 2 2 3 4 2 2 2 4 6 6 7 7 6 6 5 5 5 5 6 6 5 4 4 4 4 5 6 6 7 8 10 11 8 8 10 8 8 7 6 7 11 10
2 2 3 2 3 3 3 2 3 5 7 6 6 6 5 6 5 6 5 4 5 4 3 3 4 4 5 5 5 5 8 9 9 11 10 14 9 7 7 7 6 5 8 8
3 3 3 2 2 3 3 2 4 5 7 6 6 6 7 6 5 5 5 4 3 3 4 7 8 8 8 7 6 6 7 8 10 12 12 10 9 8 8 8 7 5 7 8
3 3 3 3 2 3 3 2 2 4 6 7 5 6 6 7 8 6 5 3 2 3 6 7 11 12 9 10 8 5 6 6 10 12 13 14 9 6 5 6 10 6 6 7
4 3 3 3 3 3 4 3 2 4 6 4 4 7 8 5 7 8 6 5 5 3 7 9 10 10 7 10 10 9 9 9 11 10 12 10 7 6 5 11 11 6 6 6
4 4 4 4 3 3 4 4 2 4 5 4 4 4 5 5 6 10 7 7 6 6 8 8 8 9 8 9 9 10 10 11 11 10 12 13 5 6 8 8 5 6 6 6
4 4 4 4 4 3 4 4 3 3 5 4 3 3 3 4 4 5 5 7 7 6 8 7 7 9 9 11 12 7 12 10 11 10 12 7 6 6 5 5 5 6 6 5
4 4 4 4 4 4 4 5 4 4 4 3 3 3 1 1 2 3 7 5 5 6 4 6 7 10 9 12 12 11 9 8 10 9 8 8 6 5 4 4 5 4 4 4
5 4 4 4 4 4 4 5 4 4 5 6 4 0 2 0 0 1 1 3 2 3 4 6 7 9 6 9 9 9 8 8 8 10 8 8 6 5 5 4 4 4 4 4
5 4 4 4 4 4 4 3 3 3 5 7 6 3 1 1 1 1 1 3 3 4 5 6 7 6 7 6 7 8 6 8 10 10 8 8 8 5 4 4 4 4 4 4
4 4 4 4 4 4 5 6 3 1 2 6 7 2 2 1 1 2 2 2 3 4 5 6 5 4 6 8 9 6 6 6 6 7 5 6 5 5 5 4 4 3 4 3
4 4 4 4 4 4 5 6 4 3 2 6 7 6 3 2 2 2 3 2 3 4 5 6 5 5 5 7 9 5 5 5 5 4 4 6 4 6 4 4 3 3 3 3
4 4 4 4 4 5 5 3 3 2 4 5 8 7 6 2 5 5 2 4 4 4 5 5 6 5 6 9 6 5 4 4 4 4 4 4 4 4 4 3 3 4 4 4
4 4 4 3 3 4 3 2 2 2 4 7 7 9 10 3 5 4 5 4 6 4 6 6 6 7 10 7 6 5 4 5 4 4 5 5 5 5 4 4 4 4 4 4
3 4 4 5 3 2 2 3 5 4 4 5 7 4 7 4 5 7 7 5 7 8 6 4 7 8 5 4 4 3 4 3 3 4 5 4 5 5 4 5 4 4 4 4
3 4 5 3 2 3 4 7 8 7 8 6 5 5 7 4 8 7 5 8 7 10 8 7 8 8 6 4 4 3 3 3 3 2 3 3 4 4 4 4 4 3 3 4
5 6 4 3 5 5 8 8 7 8 9 6 7 6 5 5 4 7 6 9 8 11 5 8 9 7 4 3 4 3 3 3 3 2 3 3 3 3 3 3 4 3 3 3
3 4 6 6 6 11 10 12 9 9 6 5 5 7 5 5 5 7 8 10 10 6 9 10 8 6 4 3 3 3 3 3 3 3 2 2 3 3 3 3 3 3 3 2
6 8 12 9 9 8 7 8 7 5 4 5 5 6 7 6 8 7 11 8 8 11 12 11 9 7 6 4 3 3 4 3 3 3 3 3 3 3 3 3 3 3 3 2
7 7 11 8 5 5 5 5 5 4 3 5 6 6 6 7 9 8 9 11 12 10 12 9 7 6 5 5 5 4 3 3 3 3 3 3 3 3 3 3 3 3 4 3
6 7 8 6 6 6 5 5 5 4 4 4 5 8 10 10 9 11 12 11 13 12 8 7 6 6 5 5 4 3 4 3 3 3 3 3 3 3 4 4 4 4 4 3
8 7 5 6 6 6 5 5 5 3 5 8 8 11 12 8 11 11 9 11 10 8 7 6 5 5 4 4 4 4 4 4 3 3 3 3 4 4 5 6 5 5 5 5